Flag for U.S.A. Weather past 2 weeks in Antioch, California, U.S.A.

Now
81 °F

Sunny.


Feels Like: 79 °F
Forecast: 50 / 81 °F
Wind: 9 mph from Northwest

Location: Buchanan Field

Current Time: Mar 29, 2015 at 3:59:01 PM

Latest Report: Mar 29, 2015 at 2:53 PM


Visibility: 10 mi

Pressure: 29.98 "Hg

Humidity: 24%

Dew point: 41 °F

Location of AntiochLocation

Historic Weather in Antioch — Graph

°F

Antioch temperature yesterday

Maximum temperature yesterday: 80 °F (at 3:53 PM)
Minimum temperature yesterday: 51 °F (at 6:53 AM)
Average temperature yesterday: 64 °F

Past Weeks' High & Low Weather Summary

 TemperatureHumidityPressure
High82 °F (Mar 14, 3:53 PM)93% (Mar 23, 5:53 AM)30.27 "Hg (Mar 23, 5:53 AM)
Low48 °F (Mar 19, 6:53 AM)19% (Mar 15, 3:53 PM)29.92 "Hg (Mar 14, 5:53 PM)
Average63 °F60%30.07 "Hg
* Reported Mar 14 2:53 PM — Mar 29 2:53 PM, Antioch, Weather by CustomWeather, © 2015

Note: Actual official high and low records may vary slightly from our data, if they occured in-between our weather recording intervals... More about our weather records

Advertising

Antioch weather history for previous 24 hours

 ConditionsComfort  
Time TempWeatherWind HumidityBarometerVisibility
2:53 PM
Sun, Mar 29
81 °FSunny.9 mph24%29.98 "Hg10 mi
1:53 PM82 °FSunny.6 mph23%30.00 "Hg10 mi
12:53 PM77 °FSunny.6 mph36%30.03 "Hg10 mi
11:53 AM73 °FSunny.3 mph44%30.05 "Hg10 mi
10:53 AM69 °FSunny.No wind49%30.07 "Hg10 mi
9:53 AM63 °FSunny.No wind54%30.07 "Hg10 mi
8:53 AM58 °FSunny.5 mph65%30.08 "Hg10 mi
7:53 AM54 °FClear.5 mph72%30.07 "Hg10 mi
6:53 AM51 °FClear.5 mph80%30.06 "Hg10 mi
5:53 AM51 °FClear.3 mph77%30.06 "Hg10 mi
4:53 AM52 °FClear.6 mph75%30.06 "Hg10 mi
3:53 AM54 °FClear.6 mph72%30.05 "Hg10 mi
2:53 AM55 °FClear.6 mph69%30.05 "Hg10 mi
1:53 AM55 °FClear.3 mph67%30.06 "Hg10 mi
12:53 AM56 °FClear.5 mph65%30.06 "Hg10 mi
11:53 PM
Sat, Mar 28
59 °FClear.No wind60%30.07 "Hg10 mi
10:53 PM60 °FClear.No wind60%30.06 "Hg10 mi
9:53 PM63 °FClear.No wind52%30.04 "Hg10 mi
8:53 PM64 °FClear.No wind52%30.03 "Hg10 mi
7:53 PM69 °FSunny.No wind42%30.02 "Hg10 mi
6:53 PM75 °FSunny.5 mph31%30.01 "Hg10 mi
5:53 PM79 °FSunny.8 mph25%30.01 "Hg10 mi
4:53 PM80 °FSunny.13 mph23%30.01 "Hg10 mi
3:53 PM80 °FSunny.9 mph22%30.03 "Hg10 mi
Weather by CustomWeather, © 2015

See weather overviewHow to use our weather pages